Temperature
30 31 31 31 31 31 31 31 31 31 31 31 30 30 30 29 28 28 27 26 25 24 24 22 22 21 21 20 20 20 20 20 20 19 19 19 19 19 19 19 18 18 18 18
30 30 31 31 31 31 31 31 31 31 31 30 30 30 30 29 28 28 27 26 25 25 24 23 22 22 21 21 20 20 20 20 20 19 19 19 19 19 19 19 18 18 18 18
30 31 31 31 30 30 31 31 31 31 30 31 30 30 30 29 28 27 27 26 26 25 24 23 22 22 22 21 20 20 20 20 20 19 19 19 19 19 19 19 19 18 18 18
30 31 30 30 31 31 31 31 31 31 30 31 31 30 30 29 29 28 27 27 26 26 25 24 23 22 22 21 21 21 20 20 20 20 19 19 19 19 19 19 19 18 18 18
30 30 30 30 31 31 31 31 31 31 31 31 31 30 30 29 29 28 28 27 26 26 25 24 23 22 22 22 21 21 21 20 20 20 20 19 19 19 19 19 19 18 18 18
31 31 31 31 31 30 30 30 30 30 31 30 30 30 30 30 29 28 28 26 26 25 25 24 23 23 22 22 21 21 21 21 20 20 19 19 19 19 19 19 19 19 19 18
30 30 30 30 30 30 30 30 29 29 29 30 30 30 29 29 29 28 27 26 25 25 24 24 23 23 22 22 21 21 21 20 20 20 20 19 19 19 19 19 19 19 19 19
29 29 30 30 30 30 30 30 29 29 29 30 30 30 30 29 28 27 27 26 25 24 24 23 23 22 22 21 21 21 20 20 20 20 20 20 19 19 19 19 19 19 19 19
30 30 30 30 30 30 30 30 31 30 30 29 30 30 29 29 28 27 27 26 25 24 24 23 23 22 22 21 21 21 21 20 20 20 20 20 19 19 19 19 19 18 18 18
30 29 30 30 30 29 30 30 30 30 28 29 29 29 30 28 28 27 27 26 25 24 24 23 22 22 22 21 21 20 20 20 20 20 20 19 19 19 19 19 19 19 18 18
30 29 29 29 29 29 29 29 29 30 30 29 29 29 29 28 28 27 27 25 24 24 23 22 22 22 21 21 21 20 20 20 20 19 19 19 19 19 19 19 19 19 18 18
29 30 29 29 29 30 30 29 29 29 28 29 29 29 28 28 27 27 26 25 24 23 22 22 21 21 21 21 20 20 20 19 19 19 19 19 19 19 19 18 18 18 18 18
28 29 28 28 29 29 29 29 30 30 30 29 29 29 27 27 27 26 25 24 23 22 22 21 20 20 20 20 20 20 19 19 19 19 19 19 19 19 18 18 18 18 18 18
27 28 28 28 29 29 29 29 29 30 29 29 29 29 28 27 26 25 24 23 22 21 21 20 20 20 19 19 19 19 19 19 19 18 18 18 18 18 18 18 18 17 17 17
28 28 28 28 29 29 29 29 29 29 29 29 29 29 28 27 26 25 24 23 22 21 20 20 19 19 19 19 18 19 19 18 18 18 18 18 18 18 18 17 17 17 17 17
27 27 27 27 28 28 28 28 28 28 28 28 28 28 27 26 25 24 23 22 22 21 20 19 19 19 18 18 18 18 18 18 18 18 18 17 17 17 17 17 17 17 17 17
27 26 26 27 28 27 27 28 28 28 28 28 28 27 26 25 24 23 22 21 21 20 20 19 19 18 18 18 18 17 17 17 17 17 17 17 17 17 17 17 17 17 17 17
25 25 26 27 26 25 27 27 27 27 27 27 27 26 25 24 22 21 21 21 20 19 19 19 18 18 18 18 18 17 17 17 17 17 17 17 16 16 16 16 16 17 16 16
25 25 26 26 26 26 26 26 26 26 26 26 26 25 24 22 22 21 20 20 19 19 18 18 18 18 18 17 17 17 17 17 17 16 17 17 16 16 16 16 16 16 16 16
24 24 25 25 25 25 26 25 25 26 25 25 25 24 23 22 24 23 19 19 18 18 17 17 17 17 17 17 17 16 16 16 16 16 16 16 16 16 16 16 16 16 16 16
24 23 24 25 25 26 24 24 24 24 24 23 23 22 22 22 22 20 18 18 17 17 17 16 16 16 16 16 16 16 16 16 16 16 15 15 15 16 16 16 15 15 15 15
24 24 24 24 24 24 23 23 24 23 21 21 21 21 20 20 19 18 18 17 17 16 16 16 16 16 16 16 16 16 16 16 15 15 15 15 15 15 15 15 15 15 15 15
23 23 24 23 23 21 21 21 20 20 20 20 20 20 19 19 18 18 17 17 16 16 16 15 15 15 15 15 15 15 15 15 15 15 15 14 14 14 14 14 14 14 14 14
22 20 22 21 22 21 20 20 19 19 19 19 19 19 18 18 17 17 16 16 16 15 15 15 15 15 15 15 14 15 15 15 15 15 14 14 14 14 14 14 14 14 14 14
21 21 21 20 20 20 20 19 19 18 18 18 18 18 18 17 17 16 16 15 15 15 14 14 14 14 14 14 14 14 14 14 14 14 14 14 14 14 14 14 14 14 14 14
21 20 21 21 20 20 19 18 18 18 17 17 17 17 17 17 16 16 15 15 14 14 14 14 14 14 14 13 13 13 13 14 13 13 13 14 14 13 13 13 13 13 13 13
Wind_Speed
6 8 8 6 5 4 3 3 2 1 1 2 2 2 3 5 5 6 7 8 8 8 8 7 7 7 6 6 6 5 5 4 4 3 3 3 3 2 2 1 2 1 1 1
8 9 6 4 4 5 6 5 3 2 1 2 2 3 3 5 5 5 6 8 8 9 9 9 8 8 8 7 7 6 6 5 5 4 2 2 2 2 2 1 1 1 1 0
11 4 5 7 7 7 6 5 3 1 1 4 4 5 4 5 5 5 6 7 8 9 9 10 10 9 9 8 8 6 6 6 5 5 4 3 3 2 2 2 1 1 0 1
9 6 7 9 9 8 6 3 4 4 6 3 4 4 3 5 5 5 6 7 8 9 9 10 10 10 10 9 9 8 7 7 6 6 4 4 2 2 2 1 1 1 0 0
8 8 9 10 7 7 4 1 4 6 7 6 5 6 2 4 4 4 4 5 6 7 9 9 10 9 9 9 9 8 8 7 7 6 5 4 3 2 2 2 2 1 1 0
7 6 7 7 6 5 4 4 5 6 7 7 4 5 1 2 1 2 3 3 4 6 7 8 8 9 8 8 8 8 8 7 7 7 6 5 4 3 2 1 1 1 1 1
9 9 7 6 7 8 8 8 6 6 6 4 2 4 1 3 2 1 2 3 4 5 6 6 7 8 9 9 9 8 9 8 8 7 7 6 5 4 4 3 2 2 1 1
11 11 9 7 8 7 9 10 8 6 5 3 4 3 2 4 3 3 3 4 5 5 5 5 6 7 8 9 9 9 9 8 8 7 7 6 6 4 3 3 3 2 2 1
8 8 8 6 6 7 8 8 7 8 7 7 4 2 3 3 3 3 4 4 4 4 4 4 4 5 7 8 9 9 9 8 7 7 6 6 5 4 3 3 3 2 2 2
6 6 7 6 7 5 7 6 6 8 6 7 5 5 2 3 3 4 4 4 3 4 4 3 3 3 5 6 7 7 7 7 7 7 6 5 5 5 4 3 2 2 2 2
8 8 8 9 9 8 7 8 7 7 8 7 6 1 3 2 3 4 4 4 4 4 3 3 3 3 5 6 6 6 6 6 6 6 5 5 4 4 4 3 3 3 3 3
8 8 8 9 6 5 8 9 9 8 7 7 7 1 6 3 3 3 4 4 4 4 4 4 4 3 4 5 5 5 5 6 5 5 5 5 4 4 4 4 4 4 4 4
7 8 9 9 9 8 9 9 10 10 8 8 9 3 7 4 4 4 4 4 4 4 4 4 4 4 4 3 4 4 4 5 5 5 5 5 5 5 5 4 4 4 4 4
6 9 10 10 6 8 10 10 10 11 9 9 9 5 3 2 3 3 3 4 4 4 3 3 3 3 3 3 2 3 3 3 4 4 4 4 4 4 4 4 4 4 4 4
6 9 9 8 6 7 9 10 11 12 11 11 8 7 3 2 3 4 4 4 4 4 3 3 2 2 2 2 1 1 2 2 3 4 4 4 4 4 4 4 4 4 4 4
5 7 8 9 7 8 10 10 10 11 10 10 9 6 0 2 3 4 4 4 3 3 2 2 1 1 1 1 1 1 1 2 3 4 4 4 4 4 4 4 3 3 3 3
6 7 8 10 7 9 12 10 10 10 8 9 9 4 3 4 3 4 4 4 3 2 1 1 1 0 0 1 1 1 2 2 3 3 3 4 3 3 3 3 3 3 3 3
6 7 7 8 7 12 4 2 5 7 7 6 3 2 3 3 3 3 3 3 2 1 1 1 0 0 1 1 1 1 1 1 2 2 2 2 3 3 3 3 2 2 2 3
6 7 7 8 11 10 5 4 5 7 6 4 4 3 4 4 4 4 3 2 1 1 1 1 1 1 1 1 0 0 1 1 1 2 2 2 2 3 3 3 3 3 3 3
5 7 9 9 10 11 3 3 1 5 8 2 2 3 4 5 5 2 3 2 1 2 2 2 2 2 2 2 1 1 1 2 2 2 2 2 3 3 3 3 3 3 3 3
8 7 11 11 10 7 3 2 4 7 2 2 1 3 4 4 1 2 2 2 1 2 2 2 2 2 2 2 1 2 2 3 3 3 2 3 3 3 4 3 3 3 4 3
7 7 8 9 10 5 4 2 3 2 2 0 2 3 3 3 2 2 3 2 1 1 1 2 2 2 2 2 1 2 3 3 3 3 3 3 3 3 3 3 4 4 4 4
5 4 3 3 2 3 1 1 2 1 1 0 1 2 3 3 2 2 2 1 0 0 1 1 1 2 3 2 2 3 3 3 2 2 2 3 3 3 3 4 4 4 4 5
3 1 3 2 2 1 1 1 0 1 1 0 1 2 3 3 3 2 1 1 1 1 1 1 2 3 3 3 3 3 3 2 2 2 2 3 3 3 3 4 4 4 4 4
2 3 4 4 3 2 2 1 1 1 1 0 1 1 2 2 2 2 2 2 2 2 2 2 2 3 3 3 3 3 3 2 2 2 3 3 3 3 3 3 3 4 3 3
4 4 5 5 3 3 3 2 1 1 1 1 1 1 1 2 2 2 2 2 2 3 2 3 3 3 3 3 3 3 3 3 3 3 3 3 3 2 3 3 2 1 2 1
Wind_Direction
198 216 215 211 238 276 257 259 258 71 103 234 219 190 167 162 179 185 184 180 180 179 174 173 175 171 167 165 164 170 169 160 166 163 167 156 150 149 139 119 77 49 31 86
205 218 221 219 226 235 237 241 229 160 165 253 245 234 190 178 187 192 192 191 189 183 175 176 179 179 177 174 174 175 176 171 176 164 173 162 143 152 137 98 86 56 34 272
221 201 191 208 209 219 229 239 257 266 229 222 247 226 187 184 191 194 200 198 194 192 185 180 184 185 183 182 182 180 179 175 179 170 169 160 158 172 154 143 136 90 342 322
225 210 204 216 219 230 227 234 254 251 257 260 261 273 180 176 188 198 201 201 200 193 191 187 186 188 188 185 181 180 178 179 179 180 178 174 171 163 145 151 111 126 134 316
206 206 210 220 219 233 252 254 257 265 271 272 246 270 160 167 203 204 199 202 203 196 190 189 188 188 188 185 182 177 176 177 177 180 177 184 185 183 170 156 127 223 164 205
222 206 223 229 221 215 203 214 234 247 254 252 250 268 234 137 233 205 177 182 186 183 181 183 183 183 186 185 185 178 174 177 178 181 182 187 194 198 184 188 174 212 192 194
206 198 199 209 205 198 217 233 239 235 230 236 181 257 23 48 39 117 160 163 159 163 170 173 176 180 183 185 185 179 176 179 181 183 188 189 196 194 195 212 206 241 240 207
207 199 193 204 221 218 221 238 251 263 261 246 195 242 69 59 72 110 131 141 143 150 156 166 173 177 183 182 182 181 178 180 182 182 187 189 195 202 201 207 229 235 265 261
215 202 180 195 216 232 222 232 262 268 264 267 239 196 139 89 99 111 120 125 129 134 138 151 168 178 180 181 182 183 180 177 180 183 185 189 196 207 208 207 225 244 254 241
233 216 186 186 198 212 246 239 240 249 256 257 234 228 208 143 118 121 125 127 122 126 125 125 148 166 169 174 174 178 178 176 178 183 189 187 195 202 205 213 214 234 249 259
229 221 197 194 212 212 205 221 236 251 261 264 259 223 75 134 135 139 138 132 121 118 112 111 112 136 153 161 164 168 167 168 174 181 186 193 195 203 207 217 224 229 237 238
219 226 216 206 201 231 221 223 223 234 242 254 268 233 90 107 120 118 125 122 111 113 109 104 104 112 132 150 158 165 168 172 177 179 183 193 200 206 217 222 227 226 231 235
201 221 214 204 198 202 216 221 232 241 244 245 251 213 111 105 108 113 122 125 120 113 105 101 97 99 110 130 149 162 174 177 181 184 188 191 201 203 215 226 227 226 230 239
224 229 238 241 232 200 211 219 231 240 240 242 248 243 175 136 140 139 140 138 132 125 116 107 102 95 104 111 130 159 174 177 182 185 190 197 209 212 215 223 225 225 228 233
224 228 237 254 253 234 231 228 227 236 249 254 252 247 236 173 162 162 153 146 141 131 123 113 104 97 97 117 135 156 177 192 192 191 200 210 220 219 222 225 222 221 228 234
222 227 227 236 235 232 238 236 230 233 242 246 252 249 21 117 145 155 156 157 151 147 142 131 121 113 110 139 171 194 199 201 207 211 213 216 225 226 225 224 224 227 232 243
205 216 229 234 222 233 233 229 227 227 235 246 248 237 151 158 162 171 168 164 160 156 149 147 157 180 217 247 218 225 229 221 217 220 221 221 224 229 233 234 228 234 240 240
215 222 230 235 223 236 226 178 226 230 232 240 253 165 157 160 155 160 159 153 141 123 92 49 347 301 278 275 247 228 218 222 229 236 242 236 229 233 235 231 231 238 245 246
213 218 232 233 236 237 205 200 216 224 228 230 229 188 158 147 150 151 121 112 113 88 47 24 3 1 2 344 338 236 249 236 239 246 247 245 236 229 226 231 236 234 237 247
190 217 232 234 244 245 214 143 216 238 228 180 212 189 182 191 227 174 114 96 76 60 47 36 32 25 21 354 325 247 258 260 261 259 257 244 236 236 236 234 238 239 237 243
192 209 229 234 241 244 80 149 206 230 245 114 206 191 194 211 303 101 124 103 76 61 53 43 31 20 9 351 336 266 266 269 277 277 265 255 243 241 241 240 238 239 239 238
217 217 223 233 238 229 78 176 225 350 20 160 167 175 175 149 120 120 128 129 119 78 55 36 20 2 344 341 338 311 302 303 294 283 272 264 255 255 246 243 244 242 245 242
232 263 253 253 272 48 45 13 15 348 327 130 175 176 173 173 171 162 159 164 184 6 6 358 349 338 326 322 323 319 329 332 319 300 287 287 270 262 258 248 243 243 244 254
195 242 233 237 231 265 269 279 304 334 333 14 172 173 179 188 190 201 215 229 250 277 292 313 318 318 323 322 318 314 319 318 298 289 292 284 273 264 260 261 252 249 250 256
239 218 224 236 248 248 233 265 297 356 28 102 176 188 201 196 205 225 244 254 267 275 284 291 307 312 314 316 315 316 320 309 291 284 280 276 270 264 263 260 270 265 262 267
231 238 242 253 247 257 273 287 271 238 215 188 199 207 218 224 232 250 267 278 275 274 282 286 294 297 306 308 307 313 311 297 284 277 281 283 283 274 264 258 258 302 272 230
Height
1500 1498 1496 1494 1494 1494 1495 1498 1499 1497 1496 1498 1499 1500 1501 1505 1507 1508 1510 1513 1516 1518 1521 1523 1525 1526 1527 1528 1529 1530 1531 1532 1533 1534 1535 1536 1537 1538 1538 1539 1538 1538 1538 1537
1498 1496 1493 1494 1495 1496 1496 1498 1498 1497 1496 1497 1498 1499 1498 1502 1505 1507 1509 1512 1514 1517 1519 1521 1523 1525 1526 1528 1529 1529 1531 1532 1533 1534 1535 1536 1537 1538 1539 1539 1538 1538 1538 1538
1494 1492 1493 1495 1496 1498 1496 1497 1497 1498 1497 1495 1498 1499 1498 1499 1503 1506 1508 1510 1512 1514 1517 1519 1521 1523 1525 1527 1528 1529 1530 1531 1533 1534 1535 1536 1537 1538 1539 1538 1538 1538 1538 1537
1492 1491 1494 1494 1494 1495 1498 1492 1494 1496 1498 1496 1497 1504 1497 1496 1500 1502 1505 1507 1509 1512 1514 1517 1520 1522 1523 1525 1527 1528 1529 1531 1532 1533 1535 1536 1537 1538 1538 1538 1538 1538 1537 1537
1491 1491 1493 1494 1492 1493 1493 1493 1494 1494 1496 1497 1495 1500 1495 1494 1498 1499 1502 1505 1507 1509 1512 1515 1518 1520 1522 1524 1526 1527 1528 1530 1531 1532 1533 1535 1536 1537 1538 1538 1537 1537 1537 1536
1487 1490 1490 1490 1490 1493 1493 1495 1495 1494 1493 1506 1498 1501 1500 1492 1495 1496 1500 1503 1506 1508 1511 1514 1516 1519 1521 1523 1525 1526 1527 1528 1530 1531 1532 1533 1535 1536 1536 1537 1537 1537 1537 1536
1491 1489 1489 1490 1492 1493 1493 1498 1507 1509 1507 1504 1493 1498 1498 1492 1493 1496 1499 1502 1505 1507 1510 1512 1514 1516 1518 1520 1523 1524 1525 1526 1528 1530 1531 1532 1533 1534 1535 1536 1536 1536 1536 1536
1493 1495 1488 1488 1490 1491 1491 1493 1508 1516 1511 1500 1496 1498 1493 1492 1495 1497 1499 1502 1504 1506 1508 1510 1512 1514 1516 1518 1520 1522 1523 1525 1527 1528 1529 1531 1532 1533 1534 1534 1535 1535 1535 1535
1487 1490 1485 1487 1488 1488 1491 1490 1487 1494 1497 1503 1496 1493 1491 1492 1494 1497 1499 1501 1503 1506 1507 1509 1511 1513 1514 1516 1518 1520 1521 1523 1525 1527 1528 1529 1530 1531 1532 1533 1533 1534 1533 1534
1481 1490 1485 1487 1488 1489 1487 1486 1490 1495 1510 1511 1501 1496 1493 1494 1494 1495 1498 1501 1504 1506 1507 1509 1510 1511 1513 1515 1516 1518 1520 1521 1523 1525 1526 1528 1529 1529 1530 1531 1531 1531 1531 1531
1480 1488 1488 1487 1490 1489 1491 1492 1491 1490 1492 1504 1507 1499 1487 1491 1493 1495 1498 1501 1504 1505 1507 1508 1509 1511 1512 1513 1515 1517 1518 1520 1522 1523 1524 1526 1527 1528 1528 1529 1529 1529 1529 1529
1482 1482 1487 1485 1483 1484 1484 1486 1489 1499 1501 1496 1499 1499 1489 1491 1493 1496 1499 1502 1505 1506 1507 1508 1509 1510 1511 1513 1515 1516 1517 1519 1520 1521 1522 1523 1524 1525 1526 1526 1526 1527 1527 1527
1482 1484 1494 1493 1491 1487 1485 1484 1483 1482 1487 1493 1498 1497 1491 1493 1495 1498 1501 1503 1505 1507 1508 1509 1509 1510 1511 1513 1514 1515 1517 1518 1518 1519 1520 1521 1522 1522 1523 1523 1524 1524 1524 1525
1483 1481 1485 1490 1483 1480 1485 1485 1483 1483 1490 1491 1490 1489 1489 1492 1495 1499 1501 1504 1506 1507 1508 1509 1509 1510 1511 1512 1513 1514 1515 1516 1517 1517 1518 1519 1519 1520 1520 1521 1521 1521 1522 1522
1481 1482 1481 1479 1477 1477 1481 1482 1483 1484 1483 1486 1485 1485 1487 1490 1495 1499 1501 1504 1506 1507 1508 1508 1509 1510 1511 1512 1512 1513 1514 1514 1515 1516 1516 1517 1517 1517 1518 1518 1518 1519 1519 1519
1482 1483 1483 1484 1479 1480 1482 1480 1481 1483 1483 1483 1484 1485 1487 1493 1496 1499 1501 1503 1505 1506 1507 1508 1509 1509 1510 1510 1511 1511 1512 1512 1513 1514 1514 1515 1515 1515 1515 1515 1516 1516 1516 1516
1480 1484 1486 1484 1480 1482 1486 1480 1480 1481 1480 1481 1484 1485 1490 1493 1496 1499 1501 1503 1505 1506 1507 1507 1508 1508 1509 1509 1510 1510 1510 1511 1511 1511 1512 1512 1512 1513 1513 1513 1513 1513 1513 1513
1483 1484 1483 1482 1487 1497 1480 1476 1477 1479 1480 1481 1483 1486 1491 1494 1498 1500 1501 1503 1504 1505 1506 1506 1507 1507 1507 1508 1508 1508 1509 1509 1509 1509 1510 1510 1510 1510 1510 1510 1510 1510 1510 1510
1482 1484 1482 1482 1485 1482 1480 1479 1479 1481 1483 1483 1484 1487 1492 1495 1497 1499 1501 1502 1504 1505 1505 1505 1506 1506 1506 1506 1506 1506 1507 1507 1507 1507 1507 1507 1507 1507 1506 1506 1507 1507 1507 1507
1483 1483 1482 1483 1488 1488 1478 1479 1482 1483 1485 1485 1486 1488 1491 1493 1492 1495 1500 1501 1503 1504 1504 1504 1504 1504 1504 1504 1504 1504 1505 1505 1505 1504 1504 1504 1504 1503 1503 1503 1503 1503 1503 1503
1482 1484 1482 1482 1484 1477 1480 1482 1483 1488 1486 1487 1488 1490 1491 1492 1494 1497 1499 1500 1502 1502 1502 1503 1503 1503 1502 1502 1502 1502 1502 1502 1502 1502 1501 1500 1500 1500 1500 1500 1500 1500 1500 1499
1478 1479 1482 1480 1484 1483 1484 1482 1484 1486 1488 1488 1489 1491 1493 1494 1496 1497 1498 1499 1501 1501 1501 1501 1501 1500 1500 1500 1500 1499 1499 1499 1498 1498 1498 1497 1497 1497 1497 1496 1496 1496 1496 1495
1478 1479 1476 1480 1483 1486 1486 1487 1489 1489 1489 1489 1490 1492 1493 1494 1496 1497 1498 1499 1499 1500 1500 1500 1500 1499 1499 1498 1498 1497 1496 1496 1495 1495 1495 1494 1494 1494 1494 1493 1493 1493 1492 1493
1480 1484 1482 1483 1483 1486 1488 1488 1489 1489 1489 1490 1491 1492 1493 1494 1495 1496 1496 1497 1498 1498 1498 1498 1498 1497 1496 1496 1495 1494 1494 1493 1492 1492 1492 1491 1491 1491 1490 1490 1490 1489 1489 1489
1481 1483 1482 1484 1485 1486 1487 1488 1488 1489 1489 1490 1491 1492 1492 1493 1494 1494 1495 1495 1495 1496 1496 1496 1495 1494 1494 1493 1493 1492 1491 1490 1490 1489 1489 1489 1488 1487 1487 1486 1486 1486 1486 1485
1482 1483 1482 1482 1485 1486 1486 1487 1488 1488 1489 1489 1490 1491 1491 1492 1492 1493 1493 1493 1493 1494 1493 1493 1492 1492 1491 1491 1490 1489 1488 1488 1487 1487 1486 1486 1486 1485 1484 1483 1482 1482 1482 1481